Weather in Mokrousovo

Russia / Republic of Bashkortostan     54°34′00″N   55°56′08″E
temp.,
°C
wind,
m/s
gust,
m/s
humid.,
%
clouds,
%
prec.,
mm/h
press.,
hPa
HPBL,
m
16 september, thu
thu1623:00+10w387512 0.2 1005309
02:00+7wsw48825 0.0 1005158
05:00+5w488513 0.0 1006213
08:00+6w4879100 0.0 1006378
11:00+9w796472 0.1 10061038
14:00+10w7951100 0.1 10071696
17:00+10wnw9105793 0.3 10081615
20:00+9wnw6952100 0.0 1008887
17 september, fri
fri1723:00+7wnw5860100 0.0 1008857
02:00+7wnw6964100 0.0 10071034
05:00+6nw6982100 0.1 1008818
08:00+6wnw6984100 0.0 1009785
11:00+7wnw5881100 0.1 1010852
14:00+8wnw6776100 0.1 1011984
17:00+8wnw5879100 0.2 1012965
20:00+7nw3579100 0.1 1013320
18 september, sat
sat1823:00+6w3687100 0.4 1013236
02:00+5nw369193 0.5 1013455
05:00+2w35917 0.6 101491
08:00+3w3589100 0.0 1014206
11:00+6wnw678299 0.2 1014871
14:00+6wnw588496 0.5 1015963
17:00+6nw798170 0.7 1016880
20:00+4nw497998 0.1 1017373
19 september, sun
sun1923:00+4wnw51181100 0.2 1018364
02:00+3wnw5108499 0.2 1018411
05:00+1wnw4109313 0.2 1019289
08:00+1wnw5109342 0.0 1020435
11:00+4nw6874100 0.0 1022945
14:00+5nw6863100 0.0 10231191
17:00+7nnw585238 0.0 10231314
20:00+3e226963 0.0 102411
20 september, mon
mon2023:00+1nnw11775 0.0 102510
02:000nw22835 0.0 102614
05:00−1nw228736 0.0 102817
08:00+1wnw127895 0.0 102961
11:00+6nne3352100 0.0 10291087
14:00+8nne224580 0.0 10291235
17:00+9nne2244100 0.0 10291230
20:00+6ene2355100 0.0 102937